#timestamp,LO_Frequency,Hit,StdDev 
1617725795.9,286047010.6,P
1617725815.7,286047011.2,P
1617725835.5,286047012.0,P
1617725855.4,286047014.0,Y
1617725875.2,286047002.8,P
1617725895.1,286047002.6,N
1617725896.0,286047002.6,N
1617725915.8,286047002.2,N
1617725935.6,286047003.2,N
1617725955.5,286047001.3,N
1617725975.3,286047002.6,N
1617725995.2,286047001.7,N
1617726015.9,286047005.7,N
1617726035.7,286047005.5,N
1617726055.6,286047005.5,N
1617726075.4,286047005.3,N
1617726095.2,286047006.5,N
1617726115.1,286047008.5,Y
1617726116.0,286047008.5,P
1617726135.8,286047003.4,N
1617726155.7,286047003.0,N
1617726175.5,286047004.3,N
1617726195.3,286047002.5,N
1617726215.2,286047001.8,N
1617726235.9,286047005.5,N
1617726255.7,286047007.3,Y
1617726275.6,286047001.5,P
1617726295.4,286047002.7,N
1617726315.3,286047000.1,N
1617726335.1,286047001.2,N
1617726336.0,286047001.2,N
1617726355.8,286046998.2,N
1617726375.7,286047000.8,N
1617726395.5,286047002.1,N
1617726415.3,286047001.4,N
1617726435.2,286047003.6,N
1617726455.0,286047003.7,N
1617726455.9,286047003.7,N
1617726475.8,286047005.6,Y
1617726495.6,286047001.5,P
1617726515.4,286047004.2,P
1617726535.3,286047003.4,N
1617726555.1,286047002.9,N
1617726575.9,286047003.1,Y
1617726595.7,286047002.3,P
1617726615.5,286047000.1,N
1617726635.4,286047002.1,N
1617726655.2,286047003.9,Y
1617726675.1,286046999.8,P
1617726676.0,286046999.8,N
1617726695.8,286047000.5,N
1617726715.6,286047000.1,N
1617726735.5,286047000.7,N
1617726755.3,286047002.5,Y
1617726775.2,286046999.7,P
1617726795.9,286047002.4,P
1617726815.7,286047002.2,N
1617726835.6,286047002.3,N
1617726855.4,286047001.7,N
1617726875.2,286047002.8,N
1617726895.1,286047000.5,N
1617726896.0,286047000.5,N
1617726915.8,286047000.4,N
1617726935.7,286047000.7,N
1617726955.5,286047001.0,N
1617726975.3,286047001.5,N
1617726995.2,286047002.5,N
1617727015.0,286047001.6,N
1617727015.9,286047001.6,N
1617727035.7,286047001.4,N
1617727055.6,286047003.1,Y
1617727075.4,286047004.3,P
1617727095.3,286047002.0,N
1617727115.1,286047003.3,N
1617727116.0,286047003.3,N
1617727135.8,286047003.0,N
1617727155.7,286047004.2,Y
1617727175.5,286047000.2,P
1617727195.4,286047001.8,N
1617727215.2,286047003.2,N
1617727235.0,286047004.4,Y
1617727235.9,286047004.4,P
1617727255.8,286046998.5,N
1617727275.6,286047001.0,N
1617727295.4,286047000.4,N
1617727315.3,286047002.0,N
1617727335.1,286047000.5,N
1617727355.9,286046999.9,N
1617727375.7,286047000.9,N
1617727395.5,286047001.6,N
1617727415.4,286047002.5,N
1617727435.2,286047002.2,N
1617727455.0,286047001.7,N
1617727456.0,286047001.7,N
1617727475.8,286047003.9,N
1617727495.6,286047004.2,N
1617727515.5,286047005.6,Y
1617727535.3,286047005.9,P
1617727555.1,286047004.2,N
1617727575.9,286047004.0,N
1617727595.7,286047003.9,N
1617727615.6,286047003.3,N
1617727635.4,286047005.8,Y
1617727655.2,286047000.3,P
1617727675.1,286047002.2,N
1617727676.0,286047002.2,N
1617727695.8,286046999.8,N
1617727715.6,286047001.9,N
1617727735.5,286047001.3,N
1617727755.3,286047001.8,N
1617727775.2,286047003.1,N
1617727795.9,286047005.8,Y
1617727815.7,286047001.8,P
1617727835.6,286047003.7,P
1617727855.4,286047003.6,P
1617727875.3,286047005.9,Y
1617727895.1,286047002.8,P
1617727896.0,286047002.8,P
1617727915.8,286047000.2,P
1617727935.7,286047000.9,N
1617727955.5,286046998.5,N
1617727975.3,286047000.5,N
1617727995.2,286047002.8,N
1617728015.0,286047002.4,N
1617728015.9,286047002.4,N
1617728035.8,286047003.9,N
1617728055.6,286047005.5,Y
1617728075.4,286047005.6,P
1617728095.3,286047005.9,P
1617728115.1,286047008.8,P
1617728135.8,286047006.1,N
1617728155.7,286047010.3,Y
1617728175.5,286047003.2,P
1617728195.4,286047003.5,N
1617728215.2,286047001.5,N
1617728235.0,286047003.3,N
1617728235.9,286047003.3,N
1617728255.8,286047005.6,Y
1617728275.6,286047000.3,P
1617728295.5,286047003.5,N
1617728315.3,286047003.0,N
1617728335.1,286047005.8,Y
1617728355.9,286047003.5,P
1617728375.7,286047005.6,P
1617728395.5,286047004.7,P
